DW9249 Weather Reports


time (UTC)temp
C
wind
direction
speed
KPH
gust
KPH
rain 1hr
cm
rain 24hr
cm
rain mn
cm
humidity
%
barometer
mb
20260504175038 21 180 8.0 20.9 0.00 0.00 0.00 34 1002.1
20260504174527 21 240 6.4 20.9 0.00 0.00 0.00 35 1002.2
20260504173359 21 221 6.4 22.5 0.00 0.00 0.00 35 1002.4
20260504172848 21 228 4.8 22.5 0.00 0.00 0.00 36 1002.4
20260504172330 21 142 3.2 19.3 0.00 0.00 0.00 36 1002.5
20260504171811 21 190 4.8 19.3 0.00 0.00 0.00 35 1002.6
20260504171314 21 210 6.4 22.5 0.00 0.00 0.00 35 1002.6
20260504170819 20 217 6.4 22.5 0.00 0.00 0.00 35 1002.6
20260504170327 20 250 8.0 22.5 0.00 0.00 0.00 35 1002.8
20260504150813 19 262 3.2 20.9 0.00 0.00 0.00 39 1004.2
20260504150321 18 161 6.4 20.9 0.00 0.00 0.00 36 1004.2
20260504141058 17 169 1.6 14.5 0.00 0.00 0.00 45 1004.5
20260504140554 17 197 3.2 14.5 0.00 0.00 0.00 46 1004.5
20260504130726 15 182 1.6 12.9 0.00 0.00 0.00 56 1005.2
20260504130222 14 275 1.6 12.9 0.00 0.00 0.00 57 1005.2
20260504100555 3 355 0.0 0.0 0.00 0.00 0.00 86 1005.4
20260504081722 3 212 0.0 0.0 0.00 0.00 0.00 82 1005.2
20260504080551 3 212 0.0 0.0 0.00 0.00 0.00 82 1005.2
20260504070221 4 212 0.0 0.0 0.00 0.00 0.00 80 1005.0
20260504050547 5 212 0.0 0.0 0.00 0.00 0.00 77 1004.6
20260504045511 5 212 0.0 0.0 0.00 0.00 0.00 77 1004.6
20260504045001 5 212 0.0 0.0 0.00 0.00 0.00 76 1004.6
20260504044509 5 212 0.0 0.0 0.00 0.00 0.00 75 1004.6
20260504044010 5 212 0.0 0.0 0.00 0.00 0.00 75 1004.7
20260504043515 5 212 0.0 0.0 0.00 0.00 0.00 74 1004.7
20260504042956 5 212 0.0 0.0 0.00 0.00 0.00 74 1004.6
20260504042502 5 212 0.0 0.0 0.00 0.00 0.00 74 1004.5
20260504041359 5 212 0.0 0.0 0.00 0.00 0.00 73 1004.3
20260504040234 6 212 0.0 0.0 0.00 0.00 0.00 72 1004.2
20260504034505 6 212 0.0 0.0 0.00 0.00 0.00 68 1004.2
20260504034001 6 212 0.0 0.0 0.00 0.00 0.00 68 1004.1
20260504033444 6 212 0.0 0.0 0.00 0.00 0.00 68 1004.1
20260504032948 6 212 0.0 0.0 0.00 0.00 0.00 69 1004.2
20260504032449 6 212 0.0 0.0 0.00 0.00 0.00 70 1004.1
20260504031936 6 212 0.0 0.0 0.00 0.00 0.00 69 1004.1
20260504031421 6 212 0.0 0.0 0.00 0.00 0.00 69 1004.0
20260504030921 6 212 0.0 0.0 0.00 0.00 0.00 69 1004.0
20260504030425 7 212 0.0 0.0 0.00 0.00 0.00 69 1003.9
20260504025932 7 212 0.0 0.0 0.00 0.00 0.00 69 1004.0
20260504025434 7 212 0.0 0.0 0.00 0.00 0.00 68 1004.0
20260504024922 7 212 0.0 0.0 0.00 0.00 0.00 68 1004.0
20260504024409 7 212 0.0 0.0 0.00 0.00 0.00 67 1004.0
20260504023906 7 212 0.0 0.0 0.00 0.00 0.00 66 1004.0
20260504023357 7 212 0.0 0.0 0.00 0.00 0.00 65 1003.9
20260504022853 7 212 0.0 0.0 0.00 0.00 0.00 64 1003.9
20260504021716 8 212 0.0 0.0 0.00 0.00 0.00 61 1003.9
20260504020555 8 212 0.0 0.0 0.00 0.00 0.00 58 1004.0
20260504020103 8 212 0.0 0.0 0.00 0.00 0.00 56 1004.0
20260504015554 9 212 0.0 0.0 0.00 0.00 0.00 54 1004.0
20260504015101 9 212 0.0 0.0 0.00 0.00 0.00 54 1003.9
20260504014609 10 212 0.0 0.0 0.00 0.00 0.00 53 1003.9
20260504014056 10 212 0.0 0.0 0.00 0.00 0.00 53 1003.8
20260504013544 10 212 0.0 0.0 0.00 0.00 0.00 52 1003.8
20260504013048 11 212 0.0 0.0 0.00 0.00 0.00 51 1003.7
20260504011933 11 212 0.0 0.0 0.00 0.00 0.00 47 1003.5
20260504010748 12 212 0.0 0.0 0.00 0.00 0.00 44 1003.4
20260504010258 12 212 0.0 0.0 0.00 0.00 0.00 45 1003.4
20260504005804 12 212 0.0 0.0 0.00 0.00 0.00 45 1003.3
20260504005251 13 212 0.0 0.0 0.00 0.00 0.00 43 1003.2
20260504004114 13 212 0.0 0.0 0.00 0.00 0.00 39 1003.2
20260504003614 13 212 0.0 0.0 0.00 0.00 0.00 39 1003.1
20260504003117 13 212 0.0 0.0 0.00 0.00 0.00 38 1003.0
20260504002607 14 212 0.0 0.0 0.00 0.00 0.00 37 1002.9
20260504002051 14 212 0.0 0.0 0.00 0.00 0.00 36 1002.8
20260504001549 14 212 0.0 0.0 0.00 0.00 0.00 35 1002.7
20260504001040 14 212 0.0 0.0 0.00 0.00 0.00 34 1002.6
20260503235901 15 225 0.0 6.4 0.00 0.00 0.00 33 1002.5
20260503235353 15 198 0.0 11.3 0.00 0.00 0.00 32 1002.5
20260503234852 15 198 1.6 11.3 0.00 0.00 0.00 32 1002.4
20260503234334 15 217 1.6 9.7 0.00 0.00 0.00 32 1002.3
20260503233845 15 188 1.6 9.7 0.00 0.00 0.00 33 1002.2
20260503233338 15 215 0.0 9.7 0.00 0.00 0.00 32 1002.2
20260503232841 15 244 0.0 4.8 0.00 0.00 0.00 32 1002.1
20260503230434 15 217 1.6 8.0 0.00 0.00 0.00 30 1002.0
20260503225943 15 248 1.6 8.0 0.00 0.00 0.00 31 1002.0
20260503225444 15 173 1.6 8.0 0.00 0.00 0.00 29 1001.9
20260503224942 16 315 1.6 11.3 0.00 0.00 0.00 31 1002.0
20260503224451 16 215 1.6 11.3 0.00 0.00 0.00 30 1002.0
20260503223311 16 209 3.2 11.3 0.00 0.00 0.00 30 1001.9
20260503222805 16 198 3.2 9.7 0.00 0.00 0.00 29 1001.9
20260503222249 16 177 1.6 1.6 0.00 0.00 0.00 28 1001.8
20260503221748 16 208 3.2 20.9 0.00 0.00 0.00 28 1001.7
20260503221257 16 211 3.2 20.9 0.00 0.00 0.00 27 1001.8
20260503220759 16 345 3.2 8.0 0.00 0.00 0.00 27 1001.7
20260503220306 16 217 4.8 16.1 0.00 0.00 0.00 26 1001.8
20260503215748 16 224 3.2 16.1 0.00 0.00 0.00 28 1001.7
20260503215243 17 20 3.2 16.1 0.00 0.00 0.00 28 1001.8
20260503214742 17 201 1.6 14.5 0.00 0.00 0.00 28 1001.8
20260503214224 17 182 0.0 11.3 0.00 0.00 0.00 28 1001.8
20260503213717 17 200 1.6 17.7 0.00 0.00 0.00 27 1001.7
20260503212537 16 5 1.6 19.3 0.00 0.00 0.00 29 1001.8
20260503212046 16 344 4.8 19.3 0.00 0.00 0.00 28 1001.8
20260503211529 16 205 6.4 20.9 0.00 0.00 0.00 28 1001.8
20260503211024 16 194 4.8 20.9 0.00 0.00 0.00 26 1001.8
20260503210524 16 350 4.8 20.9 0.00 0.00 0.00 27 1001.8
20260503210024 16 234 3.2 20.9 0.00 0.00 0.00 29 1001.7
20260503205504 16 329 4.8 19.3 0.00 0.00 0.00 27 1001.8
20260503204338 17 338 3.2 16.1 0.00 0.00 0.00 27 1001.7
20260503203224 16 342 3.2 19.3 0.00 0.00 0.00 28 1001.8
20260503202721 16 124 4.8 19.3 0.00 0.00 0.00 30 1001.8
20260503202222 16 318 4.8 22.5 0.00 0.00 0.00 26 1002.1
20260503201721 16 238 4.8 22.5 0.00 0.00 0.00 29 1002.1
20260503201206 16 346 4.8 24.1 0.00 0.00 0.00 29 1002.0
20260503200646 16 193 3.2 24.1 0.00 0.00 0.00 29 1002.1
20260503195544 16 291 4.8 24.1 0.00 0.00 0.00 28 1002.2
20260503195048 16 329 4.8 19.3 0.00 0.00 0.00 32 1002.3
20260503194536 15 9 4.8 19.3 0.00 0.00 0.00 29 1002.4
20260503194023 15 182 3.2 19.3 0.00 0.00 0.00 30 1002.2
20260503193514 15 252 1.6 17.7 0.00 0.00 0.00 29 1002.2
20260503193007 15 340 3.2 17.7 0.00 0.00 0.00 29 1002.3
20260503192448 15 350 4.8 24.1 0.00 0.00 0.00 30 1002.5
20260503191940 15 203 4.8 24.1 0.00 0.00 0.00 31 1002.6
20260503191444 15 17 3.2 24.1 0.00 0.00 0.00 31 1002.5
20260503190326 15 187 4.8 22.5 0.00 0.00 0.00 32 1002.5
20260503185828 15 338 4.8 22.5 0.00 0.00 0.00 30 1002.7
20260503185336 15 5 4.8 30.6 0.00 0.00 0.00 30 1002.7
20260503184817 15 350 4.8 30.6 0.00 0.00 0.00 31 1002.7
20260503183655 15 180 3.2 30.6 0.00 0.00 0.00 31 1002.7
20260503183156 15 165 1.6 14.5 0.00 0.00 0.00 35 1002.9
20260503182659 15 331 3.2 14.5 0.00 0.00 0.00 32 1002.9
20260503182208 14 345 3.2 22.5 0.00 0.00 0.00 33 1002.8
20260503181703 13 208 4.8 22.5 0.00 0.00 0.00 35 1002.9
20260503181154 13 199 6.4 22.5 0.00 0.00 0.00 34 1002.8
20260503180654 15 347 4.8 22.5 0.00 0.00 0.00 31 1002.9
20260503175536 14 148 4.8 17.7 0.00 0.00 0.00 34 1003.0